^^
Saratoga-Weather Station Historical Data
Daily Summary for January 20, 2020 Units:  Metric    English   Both
Daily Weekly Monthly Yearly Custom
  High: Low: Average:
Temperature: 27.1 °C 13.5 °C 19 °C
Dew Point: 12.4 °C 6 °C 9.5 °C
Humidity: 76% 28% 56%
Wind Speed: 6.4km/h 0km/h 1km/h
Wind Gust: 12.9km/h - -
Wind- - SSE
Pressure: 1014.6 hPa 1012.5 hPa -
Precipitation: 0.0 mm    
Historical Graphs
 
 
Tabular Data for January 20, 2020
Time Temperature Dew Point Pressure Wind Wind Speed Wind Gust Humidity Rainfall Rate (Hourly) solar
00:02 17.3 °C 12.4 °C 1014.6 hPa Calm     73% 0.0 mm 0 W/m2
00:07 17.2 °C 12.3 °C 1014.6 hPa Calm     73% 0.0 mm 0 W/m2
00:12 17.2 °C 12.3 °C 1014.6 hPa Calm   3.2 km/h 73% 0.0 mm 0 W/m2
00:18 17.1 °C 12.2 °C 1014.6 hPa Calm     73% 0.0 mm 0 W/m2
00:23 17 °C 12.1 °C 1014.6 hPa Calm   3.2 km/h 73% 0.0 mm 0 W/m2
00:28 16.9 °C 12 °C 1014.6 hPa Calm     73% 0.0 mm 0 W/m2
00:33 16.9 °C 12 °C 1014.2 hPa Calm     73% 0.0 mm 0 W/m2
00:38 16.8 °C 11.7 °C 1014.2 hPa Calm     72% 0.0 mm 0 W/m2
00:43 16.7 °C 11.6 °C 1014.2 hPa Calm     72% 0.0 mm 0 W/m2
00:48 16.6 °C 11.5 °C 1014.2 hPa Calm     72% 0.0 mm 0 W/m2
00:53 16.5 °C 11.4 °C 1014.2 hPa SSW 1.4 km/h 1.6 km/h 72% 0.0 mm 0 W/m2
00:58 16.6 °C 11.5 °C 1014.2 hPa Calm   1.6 km/h 72% 0.0 mm 0 W/m2
01:03 16.6 °C 11.3 °C 1014.2 hPa Calm   3.2 km/h 71% 0.0 mm 0 W/m2
01:08 16.7 °C 11 °C 1014.2 hPa SSW 1.4 km/h 1.6 km/h 69% 0.0 mm 0 W/m2
01:13 16.8 °C 11.1 °C 1014.2 hPa Calm   3.2 km/h 69% 0.0 mm 0 W/m2
01:18 16.8 °C 10.9 °C 1014.2 hPa Calm   3.2 km/h 68% 0.0 mm 0 W/m2
01:23 16.8 °C 10.9 °C 1014.2 hPa Calm     68% 0.0 mm 0 W/m2
01:28 16.7 °C 10.8 °C 1014.2 hPa SSW 1.4 km/h 3.2 km/h 68% 0.0 mm 0 W/m2
01:33 16.6 °C 10.9 °C 1014.2 hPa SSW 1.4 km/h 1.6 km/h 69% 0.0 mm 0 W/m2
01:38 16.4 °C 10.7 °C 1014.2 hPa SSW 1.4 km/h 1.6 km/h 69% 0.0 mm 0 W/m2
01:43 16.3 °C 10.6 °C 1014.2 hPa Calm   1.6 km/h 69% 0.0 mm 0 W/m2
01:48 16.3 °C 10.6 °C 1014.2 hPa Calm     69% 0.0 mm 0 W/m2
01:53 16.2 °C 10.5 °C 1014.2 hPa Calm     69% 0.0 mm 0 W/m2
01:58 16.1 °C 10.4 °C 1014.2 hPa Calm     69% 0.0 mm 0 W/m2
02:03 15.9 °C 10 °C 1014.2 hPa Calm   1.6 km/h 68% 0.0 mm 0 W/m2
02:08 15.9 °C 10 °C 1014.2 hPa SSW 1.4 km/h 1.6 km/h 68% 0.0 mm 0 W/m2
02:13 15.8 °C 9.9 °C 1014.2 hPa Calm     68% 0.0 mm 0 W/m2
02:18 15.8 °C 9.9 °C 1014.2 hPa Calm   1.6 km/h 68% 0.0 mm 0 W/m2
02:23 15.7 °C 10 °C 1014.2 hPa Calm   1.6 km/h 69% 0.0 mm 0 W/m2
02:28 15.6 °C 9.7 °C 1014.2 hPa Calm     68% 0.0 mm 0 W/m2
02:33 15.5 °C 9.8 °C 1014.2 hPa Calm     69% 0.0 mm 0 W/m2
02:38 15.4 °C 9.7 °C 1014.2 hPa Calm     69% 0.0 mm 0 W/m2
02:43 15.3 °C 9.9 °C 1014.2 hPa Calm     70% 0.0 mm 0 W/m2
02:48 15.2 °C 9.8 °C 1014.2 hPa Calm     70% 0.0 mm 0 W/m2
02:53 15.1 °C 9.9 °C 1014.2 hPa Calm     71% 0.0 mm 0 W/m2
02:58 15 °C 9.8 °C 1014.2 hPa Calm   1.6 km/h 71% 0.0 mm 0 W/m2
03:03 14.9 °C 9.7 °C 1014.2 hPa Calm     71% 0.0 mm 0 W/m2
03:08 14.8 °C 9.8 °C 1014.2 hPa Calm     72% 0.0 mm 0 W/m2
03:13 14.7 °C 9.9 °C 1014.2 hPa Calm     73% 0.0 mm 0 W/m2
03:18 14.6 °C 9.8 °C 1014.2 hPa Calm     73% 0.0 mm 0 W/m2
03:23 14.6 °C 10 °C 1014.2 hPa SSW 1.4 km/h 3.2 km/h 74% 0.0 mm 0 W/m2
03:28 14.5 °C 9.9 °C 1014.2 hPa Calm     74% 0.0 mm 0 W/m2
03:34 14.5 °C 9.7 °C 1014.2 hPa Calm     73% 0.0 mm 0 W/m2
03:39 14.5 °C 9.7 °C 1014.2 hPa Calm     73% 0.0 mm 0 W/m2
03:44 14.4 °C 9.8 °C 1014.2 hPa Calm     74% 0.0 mm 0 W/m2
03:54 14.3 °C 9.5 °C 1014.2 hPa Calm     73% 0.0 mm 0 W/m2
03:59 14.3 °C 9.5 °C 1014.2 hPa Calm     73% 0.0 mm 0 W/m2
04:04 14.3 °C 9.5 °C 1014.2 hPa Calm     73% 0.0 mm 0 W/m2
04:09 14.3 °C 9.5 °C 1014.2 hPa Calm     73% 0.0 mm 0 W/m2
04:14 14.2 °C 9.4 °C 1014.2 hPa Calm     73% 0.0 mm 0 W/m2
04:19 14.2 °C 9.4 °C 1014.2 hPa Calm     73% 0.0 mm 0 W/m2
04:24 14.1 °C 9.5 °C 1014.2 hPa Calm   1.6 km/h 74% 0.0 mm 0 W/m2
04:29 14.1 °C 9.5 °C 1014.2 hPa Calm     74% 0.0 mm 0 W/m2
04:34 14 °C 9.4 °C 1014.2 hPa Calm   1.6 km/h 74% 0.0 mm 0 W/m2
04:39 13.9 °C 9.3 °C 1014.2 hPa Calm     74% 0.0 mm 0 W/m2
04:44 13.9 °C 9.3 °C 1013.9 hPa Calm     74% 0.0 mm 0 W/m2
04:49 13.8 °C 9.2 °C 1013.9 hPa Calm     74% 0.0 mm 0 W/m2
04:54 13.8 °C 9.4 °C 1014.2 hPa Calm     75% 0.0 mm 0 W/m2
04:59 13.7 °C 9.3 °C 1014.2 hPa Calm     75% 0.0 mm 0 W/m2
05:04 13.7 °C 9.3 °C 1013.9 hPa Calm     75% 0.0 mm 0 W/m2
05:09 13.7 °C 9.3 °C 1013.9 hPa Calm     75% 0.0 mm 0 W/m2
05:14 13.7 °C 9.3 °C 1013.9 hPa Calm     75% 0.0 mm 0 W/m2
05:19 13.7 °C 9.3 °C 1013.9 hPa Calm     75% 0.0 mm 0 W/m2
05:24 13.8 °C 9.4 °C 1013.9 hPa SSW 1.4 km/h 1.6 km/h 75% 0.0 mm 0 W/m2
05:29 13.8 °C 9.2 °C 1013.5 hPa Calm   1.6 km/h 74% 0.0 mm 0 W/m2
05:34 13.9 °C 9.3 °C 1013.5 hPa Calm     74% 0.0 mm 0 W/m2
05:39 14 °C 9.4 °C 1013.5 hPa Calm     74% 0.0 mm 0 W/m2
05:44 14.1 °C 9.5 °C 1013.5 hPa SSW 1.4 km/h 1.6 km/h 74% 0.0 mm 0 W/m2
05:49 14.2 °C 9.2 °C 1013.9 hPa SSW 1.4 km/h 3.2 km/h 72% 0.0 mm 0 W/m2
05:54 14.3 °C 9.3 °C 1013.9 hPa Calm   1.6 km/h 72% 0.0 mm 0 W/m2
05:59 14.4 °C 9.4 °C 1013.9 hPa Calm     72% 0.0 mm 0 W/m2
06:05 14.4 °C 9.4 °C 1013.5 hPa Calm     72% 0.0 mm 0 W/m2
06:10 14.4 °C 9.4 °C 1013.5 hPa Calm   1.6 km/h 72% 0.0 mm 0 W/m2
06:15 14.3 °C 9.5 °C 1013.5 hPa Calm   1.6 km/h 73% 0.0 mm 0 W/m2
06:20 14.2 °C 9.4 °C 1013.5 hPa Calm     73% 0.0 mm 0 W/m2
06:25 14.2 °C 9.4 °C 1013.5 hPa Calm   1.6 km/h 73% 0.0 mm 0 W/m2
06:30 14.1 °C 9.5 °C 1013.5 hPa Calm     74% 0.0 mm 0 W/m2
06:35 14.1 °C 9.5 °C 1013.5 hPa Calm     74% 0.0 mm 0 W/m2
06:40 14.1 °C 9.5 °C 1013.5 hPa Calm     74% 0.0 mm 0 W/m2
06:45 14 °C 9.4 °C 1013.5 hPa Calm     74% 0.0 mm 0 W/m2
06:50 13.9 °C 9.3 °C 1013.5 hPa Calm     74% 0.0 mm 0 W/m2
06:55 13.9 °C 9.3 °C 1013.5 hPa Calm     74% 0.0 mm 0 W/m2
07:00 13.8 °C 9.4 °C 1013.5 hPa Calm     75% 0.0 mm 0 W/m2
07:05 13.8 °C 9.4 °C 1013.5 hPa Calm     75% 0.0 mm 0 W/m2
07:10 13.8 °C 9.4 °C 1013.5 hPa Calm     75% 0.0 mm 0 W/m2
07:15 13.7 °C 9.1 °C 1013.5 hPa Calm     74% 0.0 mm 0 W/m2
07:20 13.6 °C 9.3 °C 1013.5 hPa Calm   1.6 km/h 75% 0.0 mm 0 W/m2
07:25 13.6 °C 9.3 °C 1013.9 hPa SSW 3.2 km/h 3.2 km/h 75% 0.0 mm 0 W/m2
07:30 13.6 °C 9.3 °C 1013.9 hPa Calm     75% 0.0 mm 7 W/m2
07:35 13.6 °C 9.3 °C 1013.5 hPa SSW 1.4 km/h 1.6 km/h 75% 0.0 mm 9 W/m2
07:40 13.6 °C 9.3 °C 1013.9 hPa Calm     75% 0.0 mm 11 W/m2
07:45 13.5 °C 9.4 °C 1013.9 hPa Calm   1.6 km/h 76% 0.0 mm 14 W/m2
07:50 13.6 °C 9.3 °C 1013.9 hPa SSW 1.4 km/h 1.6 km/h 75% 0.0 mm 16 W/m2
07:55 13.7 °C 9.3 °C 1013.9 hPa Calm     75% 0.0 mm 18 W/m2
08:00 13.8 °C 9.4 °C 1013.9 hPa SSW 1.4 km/h 1.6 km/h 75% 0.0 mm 23 W/m2
08:05 13.9 °C 9.3 °C 1013.9 hPa Calm   1.6 km/h 74% 0.0 mm 26 W/m2
08:10 14.1 °C 9.5 °C 1013.9 hPa Calm     74% 0.0 mm 30 W/m2
08:15 14.2 °C 9.6 °C 1013.9 hPa Calm     74% 0.0 mm 33 W/m2
08:20 14.3 °C 9.5 °C 1013.9 hPa Calm     73% 0.0 mm 35 W/m2
08:25 14.6 °C 9.6 °C 1013.9 hPa Calm     72% 0.0 mm 40 W/m2
08:30 14.7 °C 9.7 °C 1013.9 hPa Calm     72% 0.0 mm 62 W/m2
08:35 14.9 °C 9.9 °C 1013.9 hPa Calm     72% 0.0 mm 65 W/m2
08:40 14.9 °C 9.5 °C 1014.2 hPa Calm     70% 0.0 mm 51 W/m2
08:45 15.1 °C 9.5 °C 1014.2 hPa Calm     69% 0.0 mm 53 W/m2
08:50 15.2 °C 9.3 °C 1014.2 hPa Calm     68% 0.0 mm 56 W/m2
08:55 15.4 °C 9.3 °C 1014.2 hPa Calm     67% 0.0 mm 58 W/m2
09:00 15.6 °C 9.7 °C 1014.6 hPa Calm     68% 0.0 mm 76 W/m2
09:05 15.7 °C 9.4 °C 1014.6 hPa Calm     66% 0.0 mm 72 W/m2
09:10 15.9 °C 9.8 °C 1014.6 hPa Calm     67% 0.0 mm 132 W/m2
09:15 16.1 °C 9.3 °C 1014.2 hPa Calm     64% 0.0 mm 77 W/m2
09:20 16.4 °C 9.3 °C 1014.6 hPa Calm   3.2 km/h 63% 0.0 mm 74 W/m2
09:25 16.8 °C 9.7 °C 1014.6 hPa Calm     63% 0.0 mm 72 W/m2
09:34 17.3 °C 9.9 °C 1014.6 hPa Calm   3.2 km/h 62% 0.0 mm 74 W/m2
09:40 17.4 °C 9.8 °C 1014.6 hPa Calm   1.6 km/h 61% 0.0 mm 76 W/m2
09:45 17.7 °C 10.1 °C 1014.6 hPa Calm   3.2 km/h 61% 0.0 mm 79 W/m2
09:50 17.8 °C 9.9 °C 1014.6 hPa NE 1.4 km/h 1.6 km/h 60% 0.0 mm 84 W/m2
09:55 18 °C 10.1 °C 1014.6 hPa WSW 1.4 km/h 3.2 km/h 60% 0.0 mm 90 W/m2
10:00 18.2 °C 10.1 °C 1014.6 hPa SSE 1.4 km/h 1.6 km/h 59% 0.0 mm 91 W/m2
10:05 18.3 °C 10.4 °C 1014.6 hPa Calm   1.6 km/h 60% 0.0 mm 100 W/m2
10:10 18.4 °C 10.2 °C 1014.6 hPa Calm   1.6 km/h 59% 0.0 mm 105 W/m2
10:15 18.5 °C 10.3 °C 1014.6 hPa Calm     59% 0.0 mm 113 W/m2
10:20 18.7 °C 10.8 °C 1014.6 hPa Calm   1.6 km/h 60% 0.0 mm 116 W/m2
10:25 18.9 °C 10.7 °C 1014.6 hPa Calm     59% 0.0 mm 123 W/m2
10:30 19.2 °C 10.7 °C 1014.6 hPa Calm     58% 0.0 mm 130 W/m2
10:35 19.4 °C 10.4 °C 1014.6 hPa Calm   1.6 km/h 56% 0.0 mm 132 W/m2
10:40 19.7 °C 10.4 °C 1014.6 hPa Calm   3.2 km/h 55% 0.0 mm 132 W/m2
10:45 19.9 °C 10.6 °C 1014.6 hPa SSE 1.4 km/h 3.2 km/h 55% 0.0 mm 132 W/m2
10:50 20 °C 10.7 °C 1014.6 hPa Calm     55% 0.0 mm 137 W/m2
10:55 20.1 °C 10.8 °C 1014.6 hPa East 1.4 km/h 3.2 km/h 55% 0.0 mm 142 W/m2
11:00 20.1 °C 10.8 °C 1014.6 hPa ENE 1.4 km/h 3.2 km/h 55% 0.0 mm 148 W/m2
11:05 20.1 °C 10.5 °C 1014.6 hPa East 1.4 km/h 4.8 km/h 54% 0.0 mm 151 W/m2
11:10 20.1 °C 10.5 °C 1014.6 hPa ENE 1.4 km/h 4.8 km/h 54% 0.0 mm 153 W/m2
11:15 20 °C 10.4 °C 1014.6 hPa ESE 1.4 km/h 3.2 km/h 54% 0.0 mm 158 W/m2
11:20 20 °C 10.4 °C 1014.6 hPa East 4.7 km/h 4.8 km/h 54% 0.0 mm 165 W/m2
11:25 20.1 °C 10.5 °C 1014.6 hPa Calm   3.2 km/h 54% 0.0 mm 171 W/m2
11:30 20.1 °C 10.8 °C 1014.6 hPa East 6.4 km/h 6.4 km/h 55% 0.0 mm 172 W/m2
11:35 20.1 °C 10.2 °C 1014.6 hPa NE 1.4 km/h 3.2 km/h 53% 0.0 mm 163 W/m2
11:40 20.1 °C 10.2 °C 1014.6 hPa ENE 1.4 km/h 3.2 km/h 53% 0.0 mm 172 W/m2
11:45 20 °C 10.1 °C 1014.6 hPa ENE 1.4 km/h 3.2 km/h 53% 0.0 mm 241 W/m2
11:50 20 °C 10.1 °C 1014.6 hPa WNW 1.4 km/h 4.8 km/h 53% 0.0 mm 322 W/m2
11:55 20.2 °C 10.3 °C 1014.6 hPa NW 1.4 km/h 1.6 km/h 53% 0.0 mm 585 W/m2
12:00 20.4 °C 10.2 °C 1014.6 hPa Calm   3.2 km/h 52% 0.0 mm 552 W/m2
12:05 20.7 °C 10.2 °C 1014.6 hPa East 1.4 km/h 3.2 km/h 51% 0.0 mm 404 W/m2
12:10 20.9 °C 10.4 °C 1014.2 hPa NW 3.2 km/h 3.2 km/h 51% 0.0 mm 192 W/m2
12:15 21 °C 10.2 °C 1014.6 hPa East 1.4 km/h 3.2 km/h 50% 0.0 mm 199 W/m2
12:20 21.1 °C 10.9 °C 1014.2 hPa East 4.7 km/h 4.8 km/h 52% 0.0 mm 287 W/m2
12:25 21.1 °C 10.6 °C 1014.2 hPa NW 1.4 km/h 3.2 km/h 51% 0.0 mm 374 W/m2
12:30 21.2 °C 10.7 °C 1014.2 hPa Calm   3.2 km/h 51% 0.0 mm 489 W/m2
12:35 21.5 °C 11.2 °C 1014.2 hPa NNW 1.4 km/h 1.6 km/h 52% 0.0 mm 501 W/m2
12:40 21.8 °C 10.9 °C 1014.2 hPa ESE 3.2 km/h 4.8 km/h 50% 0.0 mm 601 W/m2
12:45 22.1 °C 10.9 °C 1014.2 hPa Calm   3.2 km/h 49% 0.0 mm 487 W/m2
12:50 22.3 °C 11.7 °C 1014.2 hPa Calm   6.4 km/h 51% 0.0 mm 622 W/m2
12:55 22.7 °C 11.4 °C 1014.2 hPa ENE 1.4 km/h 3.2 km/h 49% 0.0 mm 694 W/m2
13:00 23.2 °C 11.3 °C 1014.2 hPa ENE 3.2 km/h 9.7 km/h 47% 0.0 mm 682 W/m2
13:05 23.6 °C 11.6 °C 1014.2 hPa WNW 3.2 km/h 4.8 km/h 47% 0.0 mm 673 W/m2
13:10 23.8 °C 11.5 °C 1014.2 hPa ENE 1.4 km/h 11.3 km/h 46% 0.0 mm 719 W/m2
13:15 23.9 °C 11.2 °C 1014.2 hPa NW 1.4 km/h 4.8 km/h 45% 0.0 mm 621 W/m2
13:20 23.8 °C 11.5 °C 1013.9 hPa Calm   11.3 km/h 46% 0.0 mm 345 W/m2
13:25 23.8 °C 11.5 °C 1013.9 hPa SE 1.4 km/h 4.8 km/h 46% 0.0 mm 246 W/m2
13:30 23.7 °C 11.4 °C 1013.9 hPa SE 3.2 km/h 4.8 km/h 46% 0.0 mm 302 W/m2
13:35 23.6 °C 11.6 °C 1013.9 hPa Calm   3.2 km/h 47% 0.0 mm 214 W/m2
13:40 23.4 °C 11.1 °C 1013.9 hPa Calm   3.2 km/h 46% 0.0 mm 432 W/m2
13:45 23.4 °C 11.8 °C 1013.9 hPa East 3.2 km/h 6.4 km/h 48% 0.0 mm 580 W/m2
13:50 23.6 °C 11.3 °C 1013.9 hPa WSW 1.4 km/h 1.6 km/h 46% 0.0 mm 661 W/m2
13:55 23.7 °C 11.7 °C 1013.9 hPa East 3.2 km/h 6.4 km/h 47% 0.0 mm 650 W/m2
14:00 23.9 °C 11.6 °C 1013.5 hPa ESE 4.7 km/h 6.4 km/h 46% 0.0 mm 533 W/m2
14:05 24.1 °C 11.1 °C 1013.5 hPa North 3.2 km/h 3.2 km/h 44% 0.0 mm 485 W/m2
14:10 24.2 °C 11.2 °C 1013.5 hPa ENE 3.2 km/h 11.3 km/h 44% 0.0 mm 501 W/m2
14:16 24.3 °C 11.3 °C 1013.5 hPa SSE 3.2 km/h 3.2 km/h 44% 0.0 mm 552 W/m2
14:21 24.3 °C 11.3 °C 1013.5 hPa Calm   9.7 km/h 44% 0.0 mm 594 W/m2
14:26 24.4 °C 11.4 °C 1013.5 hPa SE 1.4 km/h 6.4 km/h 44% 0.0 mm 503 W/m2
14:31 24.6 °C 11.5 °C 1013.2 hPa Calm   9.7 km/h 44% 0.0 mm 445 W/m2
14:36 24.6 °C 11.5 °C 1013.2 hPa East 3.2 km/h 6.4 km/h 44% 0.0 mm 376 W/m2
14:41 24.6 °C 11.5 °C 1013.2 hPa Calm   1.6 km/h 44% 0.0 mm 454 W/m2
14:46 24.7 °C 11.6 °C 1013.2 hPa Calm   6.4 km/h 44% 0.0 mm 499 W/m2
14:51 24.8 °C 11.4 °C 1013.2 hPa South 3.2 km/h 9.7 km/h 43% 0.0 mm 571 W/m2
14:56 24.9 °C 11.5 °C 1013.2 hPa NNE 3.2 km/h 3.2 km/h 43% 0.0 mm 643 W/m2
15:01 25 °C 11.2 °C 1013.2 hPa WSW 3.2 km/h 6.4 km/h 42% 0.0 mm 629 W/m2
15:06 25.3 °C 11.5 °C 1013.2 hPa NNW 1.4 km/h 6.4 km/h 42% 0.0 mm 650 W/m2
15:11 25.7 °C 11.8 °C 1013.2 hPa SSW 3.2 km/h 3.2 km/h 42% 0.0 mm 643 W/m2
15:16 25.9 °C 11.3 °C 1013.2 hPa NW 4.7 km/h 4.8 km/h 40% 0.0 mm 608 W/m2
15:21 26.2 °C 11.2 °C 1013.2 hPa NNW 4.7 km/h 8 km/h 39% 0.0 mm 443 W/m2
15:26 26.1 °C 11.1 °C 1013.2 hPa East 3.2 km/h 6.4 km/h 39% 0.0 mm 390 W/m2
15:31 26.1 °C 11.4 °C 1013.2 hPa East 3.2 km/h 11.3 km/h 40% 0.0 mm 436 W/m2
15:36 26.1 °C 11.1 °C 1013.2 hPa East 3.2 km/h 3.2 km/h 39% 0.0 mm 301 W/m2
15:41 26.1 °C 11.1 °C 1012.9 hPa ESE 1.4 km/h 11.3 km/h 39% 0.0 mm 338 W/m2
15:46 26 °C 11.4 °C 1012.9 hPa SE 4.7 km/h 4.8 km/h 40% 0.0 mm 432 W/m2
15:51 25.9 °C 10.9 °C 1012.9 hPa Calm   6.4 km/h 39% 0.0 mm 406 W/m2
15:56 25.9 °C 10.9 °C 1012.9 hPa ESE 1.4 km/h 1.6 km/h 39% 0.0 mm 336 W/m2
16:01 25.9 °C 10.9 °C 1012.9 hPa Calm   3.2 km/h 39% 0.0 mm 285 W/m2
16:06 25.9 °C 10.5 °C 1012.9 hPa ENE 1.4 km/h 6.4 km/h 38% 0.0 mm 269 W/m2
16:11 25.8 °C 10.8 °C 1012.9 hPa NE 1.4 km/h 6.4 km/h 39% 0.0 mm 267 W/m2
16:16 25.7 °C 10.3 °C 1012.9 hPa SSW 1.4 km/h 3.2 km/h 38% 0.0 mm 288 W/m2
16:21 25.6 °C 10.6 °C 1012.9 hPa Calm   3.2 km/h 39% 0.0 mm 281 W/m2
16:26 25.7 °C 10.7 °C 1012.9 hPa ENE 1.4 km/h 4.8 km/h 39% 0.0 mm 294 W/m2
16:31 25.9 °C 10.5 °C 1012.9 hPa Calm   4.8 km/h 38% 0.0 mm 468 W/m2
16:36 26.2 °C 10.4 °C 1012.9 hPa NNE 1.4 km/h 3.2 km/h 37% 0.0 mm 536 W/m2
16:41 26.5 °C 10.2 °C 1012.9 hPa ENE 4.7 km/h 6.4 km/h 36% 0.0 mm 578 W/m2
16:46 26.8 °C 10.1 °C 1012.9 hPa NW 1.4 km/h 11.3 km/h 35% 0.0 mm 587 W/m2
16:51 26.7 °C 10.4 °C 1012.9 hPa ENE 3.2 km/h 9.7 km/h 36% 0.0 mm 573 W/m2
16:56 26.9 °C 10.6 °C 1012.9 hPa NW 1.4 km/h 4.8 km/h 36% 0.0 mm 438 W/m2
17:01 26.9 °C 10.6 °C 1012.5 hPa NNW 1.4 km/h 9.7 km/h 36% 0.0 mm 267 W/m2
17:06 26.8 °C 9.6 °C 1012.5 hPa ENE 4.7 km/h 6.4 km/h 34% 0.0 mm 339 W/m2
17:11 26.7 °C 10 °C 1012.5 hPa ENE 6.4 km/h 12.9 km/h 35% 0.0 mm 381 W/m2
17:16 26.6 °C 9.9 °C 1012.5 hPa Calm   4.8 km/h 35% 0.0 mm 325 W/m2
17:21 26.7 °C 7.2 °C 1012.5 hPa WNW 4.7 km/h 8 km/h 29% 0.0 mm 406 W/m2
17:26 26.9 °C 6.8 °C 1012.5 hPa NNW 3.2 km/h 6.4 km/h 28% 0.0 mm 306 W/m2
17:31 26.9 °C 7.4 °C 1012.5 hPa WNW 4.7 km/h 8 km/h 29% 0.0 mm 374 W/m2
17:36 27.1 °C 7 °C 1012.5 hPa WNW 1.4 km/h 4.8 km/h 28% 0.0 mm 299 W/m2
17:41 27.1 °C 7.5 °C 1012.5 hPa SE 4.7 km/h 6.4 km/h 29% 0.0 mm 229 W/m2
17:46 26.8 °C 7.3 °C 1012.5 hPa NNW 1.4 km/h 4.8 km/h 29% 0.0 mm 162 W/m2
17:51 26.6 °C 7.1 °C 1012.5 hPa ESE 1.4 km/h 6.4 km/h 29% 0.0 mm 169 W/m2
17:56 26.5 °C 7.5 °C 1012.5 hPa NE 4.7 km/h 6.4 km/h 30% 0.0 mm 155 W/m2
18:01 26.3 °C 6.8 °C 1012.5 hPa SE 3.2 km/h 3.2 km/h 29% 0.0 mm 120 W/m2
18:06 26.2 °C 6.8 °C 1012.5 hPa ENE 4.7 km/h 6.4 km/h 29% 0.0 mm 179 W/m2
18:11 26 °C 6.1 °C 1012.9 hPa ENE 6.4 km/h 6.4 km/h 28% 0.0 mm 158 W/m2
18:16 25.9 °C 6 °C 1012.9 hPa Calm   1.6 km/h 28% 0.0 mm 135 W/m2
18:21 25.8 °C 6.4 °C 1012.9 hPa Calm   1.6 km/h 29% 0.0 mm 151 W/m2
18:26 25.7 °C 6.3 °C 1012.9 hPa East 1.4 km/h 3.2 km/h 29% 0.0 mm 149 W/m2
18:31 25.5 °C 6.2 °C 1012.9 hPa East 6.4 km/h 6.4 km/h 29% 0.0 mm 134 W/m2
18:36 25.4 °C 6.6 °C 1012.9 hPa SE 1.4 km/h 3.2 km/h 30% 0.0 mm 142 W/m2
18:41 25.2 °C 6.9 °C 1012.9 hPa SE 1.4 km/h 3.2 km/h 31% 0.0 mm 62 W/m2
18:46 24.8 °C 6.5 °C 1012.9 hPa Calm   3.2 km/h 31% 0.0 mm 42 W/m2
18:51 24.6 °C 6.8 °C 1012.9 hPa ENE 1.4 km/h 3.2 km/h 32% 0.0 mm 39 W/m2
18:56 24.2 °C 7.3 °C 1012.9 hPa East 1.4 km/h 3.2 km/h 34% 0.0 mm 33 W/m2
19:01 23.8 °C 7.4 °C 1012.9 hPa SSE 3.2 km/h 3.2 km/h 35% 0.0 mm 32 W/m2
19:06 23.5 °C 7.2 °C 1012.9 hPa East 1.4 km/h 3.2 km/h 35% 0.0 mm 28 W/m2
19:11 23.2 °C 7.7 °C 1012.9 hPa Calm   3.2 km/h 37% 0.0 mm 25 W/m2
19:16 22.9 °C 7.8 °C 1012.9 hPa Calm   1.6 km/h 38% 0.0 mm 21 W/m2
19:21 22.6 °C 7.9 °C 1012.9 hPa Calm   1.6 km/h 39% 0.0 mm 19 W/m2
19:26 22.2 °C 8 °C 1012.9 hPa Calm   3.2 km/h 40% 0.0 mm 14 W/m2
19:31 21.8 °C 7.6 °C 1012.9 hPa East 1.4 km/h 3.2 km/h 40% 0.0 mm 11 W/m2
19:36 21.3 °C 7.9 °C 1013.2 hPa Calm   1.6 km/h 42% 0.0 mm 7 W/m2
19:41 21 °C 7.6 °C 1013.2 hPa East 1.4 km/h 1.6 km/h 42% 0.0 mm 0 W/m2
19:46 20.7 °C 7.7 °C 1013.2 hPa SE 3.2 km/h 3.2 km/h 43% 0.0 mm 0 W/m2
19:51 20.4 °C 7.7 °C 1013.2 hPa SE 1.4 km/h 3.2 km/h 44% 0.0 mm 0 W/m2
19:56 20.1 °C 7.8 °C 1013.2 hPa SE 1.4 km/h 3.2 km/h 45% 0.0 mm 0 W/m2
20:01 19.8 °C 7.5 °C 1013.2 hPa SE 1.4 km/h 3.2 km/h 45% 0.0 mm 0 W/m2
20:06 19.5 °C 7.6 °C 1013.2 hPa SE 1.4 km/h 3.2 km/h 46% 0.0 mm 0 W/m2
20:11 19.3 °C 7.4 °C 1013.5 hPa Calm     46% 0.0 mm 0 W/m2
20:16 19.1 °C 7.5 °C 1013.2 hPa SE 3.2 km/h 3.2 km/h 47% 0.0 mm 0 W/m2
20:21 18.8 °C 7.6 °C 1013.5 hPa SE 1.4 km/h 3.2 km/h 48% 0.0 mm 0 W/m2
20:26 18.6 °C 7.4 °C 1013.5 hPa SE 1.4 km/h 3.2 km/h 48% 0.0 mm 0 W/m2
20:31 18.4 °C 7.2 °C 1013.5 hPa Calm     48% 0.0 mm 0 W/m2
20:36 18.3 °C 7.1 °C 1013.5 hPa SE 1.4 km/h 3.2 km/h 48% 0.0 mm 0 W/m2
20:41 18.2 °C 7.3 °C 1013.5 hPa SSE 3.2 km/h 3.2 km/h 49% 0.0 mm 0 W/m2
20:46 18.1 °C 6.9 °C 1013.5 hPa SSE 3.2 km/h 3.2 km/h 48% 0.0 mm 0 W/m2
20:51 18.1 °C 7.2 °C 1013.5 hPa Calm   1.6 km/h 49% 0.0 mm 0 W/m2
20:56 18.2 °C 7 °C 1013.5 hPa Calm   3.2 km/h 48% 0.0 mm 0 W/m2
21:01 18.2 °C 7 °C 1013.5 hPa Calm     48% 0.0 mm 0 W/m2
21:06 18.1 °C 7.2 °C 1013.9 hPa SSE 1.4 km/h 3.2 km/h 49% 0.0 mm 0 W/m2
21:11 17.9 °C 7 °C 1013.9 hPa Calm   1.6 km/h 49% 0.0 mm 0 W/m2
21:16 17.8 °C 6.9 °C 1013.9 hPa South 1.4 km/h 4.8 km/h 49% 0.0 mm 0 W/m2
21:21 17.8 °C 6.9 °C 1013.9 hPa Calm   1.6 km/h 49% 0.0 mm 0 W/m2
21:26 17.7 °C 6.8 °C 1014.2 hPa Calm   4.8 km/h 49% 0.0 mm 0 W/m2
21:31 17.7 °C 6.8 °C 1014.2 hPa South 1.4 km/h 1.6 km/h 49% 0.0 mm 0 W/m2
21:36 17.7 °C 7.1 °C 1014.2 hPa Calm   1.6 km/h 50% 0.0 mm 0 W/m2
21:41 17.7 °C 7.4 °C 1014.2 hPa Calm   3.2 km/h 51% 0.0 mm 0 W/m2
21:46 17.6 °C 7.1 °C 1014.2 hPa Calm   3.2 km/h 50% 0.0 mm 0 W/m2
21:51 17.6 °C 7.3 °C 1014.2 hPa South 1.4 km/h 3.2 km/h 51% 0.0 mm 0 W/m2
21:57 17.7 °C 7.4 °C 1014.2 hPa South 1.4 km/h 1.6 km/h 51% 0.0 mm 0 W/m2
22:02 17.6 °C 7.3 °C 1014.2 hPa Calm   4.8 km/h 51% 0.0 mm 0 W/m2
22:07 17.7 °C 7.4 °C 1014.2 hPa South 1.4 km/h 1.6 km/h 51% 0.0 mm 0 W/m2
22:12 17.7 °C 7.4 °C 1014.2 hPa Calm   4.8 km/h 51% 0.0 mm 0 W/m2
22:17 17.7 °C 7.7 °C 1014.2 hPa South 1.4 km/h 1.6 km/h 52% 0.0 mm 0 W/m2
22:22 17.5 °C 7.5 °C 1014.2 hPa Calm   3.2 km/h 52% 0.0 mm 0 W/m2
22:27 17.3 °C 7.6 °C 1014.2 hPa South 3.2 km/h 3.2 km/h 53% 0.0 mm 0 W/m2
22:32 17.2 °C 7.8 °C 1014.2 hPa Calm   1.6 km/h 54% 0.0 mm 0 W/m2
22:37 17 °C 7.6 °C 1014.2 hPa South 1.4 km/h 3.2 km/h 54% 0.0 mm 0 W/m2
22:42 16.8 °C 7.7 °C 1014.2 hPa Calm   3.2 km/h 55% 0.0 mm 0 W/m2
22:47 16.7 °C 7.6 °C 1014.2 hPa Calm   3.2 km/h 55% 0.0 mm 0 W/m2
22:52 16.4 °C 7.6 °C 1014.2 hPa South 1.4 km/h 1.6 km/h 56% 0.0 mm 0 W/m2
22:57 16.3 °C 7.5 °C 1014.2 hPa Calm   3.2 km/h 56% 0.0 mm 0 W/m2
23:02 16.1 °C 7.6 °C 1014.2 hPa South 1.4 km/h 1.6 km/h 57% 0.0 mm 0 W/m2
23:07 15.9 °C 7.6 °C 1014.2 hPa South 1.4 km/h 3.2 km/h 58% 0.0 mm 0 W/m2
23:12 15.8 °C 7.6 °C 1014.2 hPa Calm   3.2 km/h 58% 0.0 mm 0 W/m2
23:17 15.7 °C 7.5 °C 1014.2 hPa Calm   3.2 km/h 58% 0.0 mm 0 W/m2
23:22 15.6 °C 7.6 °C 1014.2 hPa South 1.4 km/h 3.2 km/h 59% 0.0 mm 0 W/m2
23:27 15.5 °C 7.5 °C 1014.6 hPa South 1.4 km/h 3.2 km/h 59% 0.0 mm 0 W/m2
23:32 15.4 °C 7.4 °C 1014.6 hPa Calm   1.6 km/h 59% 0.0 mm 0 W/m2
23:37 15.3 °C 7.3 °C 1014.6 hPa Calm   3.2 km/h 59% 0.0 mm 0 W/m2
23:42 15.3 °C 7.6 °C 1014.6 hPa Calm     60% 0.0 mm 0 W/m2
23:47 15.2 °C 7.5 °C 1014.6 hPa Calm   1.6 km/h 60% 0.0 mm 0 W/m2
23:52 15.1 °C 7.6 °C 1014.6 hPa Calm   1.6 km/h 61% 0.0 mm 0 W/m2
23:57 14.9 °C 7.4 °C 1014.2 hPa Calm     61% 0.0 mm 0 W/m2
Juneau County Weather
Compliments of Weather Underground - 2 mb